Palos Park, Illinois, United States (60464)
Lat: 41.67N, Lon: 87.83W
Wx Zone: ILZ014
Local Info
Past Weather Observations for Saturday, August 16, 2014

NOTE: This archive is for the closest National Weather Service station to Palos Park. Information may differ from the station used for current weather conditions.

Click here for Long-term Archive

Time Weather Temperature Dewpoint Humidity Pressure Winds Precip Visibility
23:51
Partly Cloudy
72°F / 22°C 64°F / 18°C 78% 29.95 in
(1014 mb)
SW 8.1 mph
(SW 13 kph)
- 10SM
22:51
Partly Cloudy
73°F / 23°C 66°F / 19°C 78% 29.95 in
(1014 mb)
SSE 6.9 mph
(SSE 11 kph)
- 10SM
21:51
Mostly Cloudy
73°F / 23°C 66°F / 19°C 78% 29.95 in
(1014 mb)
SSE 5.8 mph
(SSE 9 kph)
- 10SM
20:51
Mostly Cloudy
75°F / 24°C 66°F / 19°C 74% 29.92 in
(1013 mb)
S 6.9 mph
(S 11 kph)
- 10SM
19:51
Mostly Cloudy
77°F / 25°C 66°F / 19°C 69% 29.92 in
(1013 mb)
S 6.9 mph
(S 11 kph)
- 10SM
18:51
Mostly Cloudy
77°F / 25°C 66°F / 19°C 69% 29.92 in
(1013 mb)
SSW 10.4 mph
(SSW 17 kph)
- 10SM
17:51
Mostly Cloudy
79°F / 26°C 66°F / 19°C 65% 29.92 in
(1013 mb)
SW 10.4 mph
(SW 17 kph)
- 10SM
16:51
Mostly Cloudy
81°F / 27°C 66°F / 19°C 62% 29.89 in
(1012 mb)
SSW 9.2 mph
(SSW 15 kph)
- 10SM
15:51
Mostly Cloudy
81°F / 27°C 66°F / 19°C 62% 29.92 in
(1013 mb)
SW 8.1 mph
(SW 13 kph)
- 10SM
14:51
Mostly Cloudy
81°F / 27°C 66°F / 19°C 62% 29.92 in
(1013 mb)
SW 9.2 mph
(SW 15 kph)
- 10SM
13:51
Mostly Cloudy
81°F / 27°C 68°F / 20°C 66% 29.92 in
(1013 mb)
SW 11.5 mph
(SW 19 kph)
- 10SM
12:51
Mostly Cloudy
81°F / 27°C 66°F / 19°C 62% 29.92 in
(1013 mb)
SW 11.5 mph
(SW 19 kph)
- 10SM
11:51
Mostly Cloudy
79°F / 26°C 66°F / 19°C 65% 29.95 in
(1014 mb)
SSW 9.2 mph
(SSW 15 kph)
- 10SM
10:51
Mostly Cloudy
79°F / 26°C 66°F / 19°C 65% 29.95 in
(1014 mb)
SSW 11.5 mph
(SSW 19 kph)
- 10SM
09:51
Mostly Cloudy
77°F / 25°C 66°F / 19°C 69% 29.95 in
(1014 mb)
SW 11.5 mph
(SW 19 kph)
- 10SM
08:51
Mostly Cloudy
75°F / 24°C 64°F / 18°C 69% 29.92 in
(1013 mb)
SSW 6.9 mph
(SSW 11 kph)
- 10SM
07:51
Mostly Cloudy
73°F / 23°C 63°F / 17°C 69% 29.92 in
(1013 mb)
SW 11.5 mph
(SW 19 kph)
- 10SM
06:51
Partly Cloudy
70°F / 21°C 61°F / 16°C 73% 29.92 in
(1013 mb)
SW 6.9 mph
(SW 11 kph)
- 10SM
05:51
Mostly Cloudy
66°F / 19°C 61°F / 16°C 83% 29.95 in
(1014 mb)
SW 6.9 mph
(SW 11 kph)
- 10SM
04:51
Partly Cloudy
64°F / 18°C 59°F / 15°C 83% 29.95 in
(1014 mb)
SSE 4.6 mph
(SSE 7 kph)
- 10SM
03:51
Partly Cloudy
64°F / 18°C 59°F / 15°C 83% 29.95 in
(1014 mb)
SW 6.9 mph
(SW 11 kph)
- 10SM
02:51
Clear
64°F / 18°C 57°F / 14°C 78% 29.95 in
(1014 mb)
SW 8.1 mph
(SW 13 kph)
- 10SM
01:51
Clear
66°F / 19°C 57°F / 14°C 73% 29.95 in
(1014 mb)
SSE 5.8 mph
(SSE 9 kph)
- 10SM
00:51
Clear
66°F / 19°C 55°F / 13°C 68% 29.95 in
(1014 mb)
S 4.6 mph
(S 7 kph)
- 10SM
Time Weather Temperature Dewpoint Humidity Pressure Winds Precip Visibility


Weather for websites

WeatherForYou.com, LLC is not responsible for any damages or problems caused by this service. Current weather conditions are obtained from the closest station including government and personal stations which may have varying degrees of accuracy. Weather forecasts are derived from the NOAA NDFD. Like all things, this site belongs to Jesus Christ... He just trusts me to maintain it. If you have any questions or comments email webmaster@weatherforyou.com

Copyright © 2014, WeatherForYou.com LLC. All rights reserved.